STARLINK-3004, 48880

Orbit data source: Space-Track

STARLINK-3004, 48880 is a payload satellite owned by SpaceX/Seattle (US) in SSO that was launched on Wed, 30 Jun 2021 UTC via an FALCON 9 launch vehicle from the Air Force Eastern Test Range (AFETR). Payload-class satellites include a variety of spacecraft equipped with specific instruments for various scientific and technological missions. These include communications satellites like Starlink; space stations such as the ISS; scientific satellites like the Hubble; Earth observation satellites from companies like Planet Labs, Umbra, and HawkEye 360; GPS; miniature CubeSats for education and research; and military/defense satellites.

Loading next visibility...
Identifier
48880, 2021-059B
Orbit
SSO
Country
Flag of USUS
Related business
Manufacturer
SpaceX/Seattle
Mission
Operational Commercial Communications
Bus & Motor
STARLINK, Unknown motor
Mass
260 kg wet, ~248 kg dry
Launch date (UTC)
2021-06-30 (4 years ago)
Launch vehicle
FALCON 9
Launch site
Air Force Eastern Test Range (AFETR)
Object type
Payload
Rocket body
Debris
Shape & HBR
Box + 1 Pan, 10.1 m
Radar Cross Section
13.562 m², Large (>1 m²)

Expand to show TLE details & history
Last TLE update: 9 hours ago

TLE from 9 hours ago
0 STARLINK-3004
1 48880U 21059B   25309.24890248  .00000699  00000-0  58985-4 0  9994
2 48880  97.6610  72.5458 0001781 208.1418 151.9710 15.01262709240138
Epoch: 2025-11-05T05:58Z
TLE epoch observation values (Epoch: 2025-11-05T05:58:25.174Z)
Latitude
-0.00003°
Longitude
-61.78338°
Altitude
567.151 km
Speed
7.577 km/s
True Right ascension
04h 50m 10s
True Declination
0° 00' 00"
Sunlit
Object was in full shadow at epoch
Visualization orbit readout
Latitude
Unknown
Longitude
Unknown
Altitude
Unknown
Speed
Unknown
Apparent Right ascension
Unknown
Apparent Declination
Unknown
Sunlit
N/A
Visualization observer readout
Local Sidereal Time
11:22:32
Azimuth
Unknown
Elevation
Unknown
Doppler factor
Unknown
Orbital elements
Apogee altitude
561.239 km
Perigee altitude
558.768 km
Semi-major axis
6,938.14 km
Eccentricity
0.00018
Inclination
97.661°
RAAN
72.5458°
Arg. of periapsis
208.1418°
True anomaly
151.98059°
Mean anomaly
151.971°
Eccentric anomaly
151.97579°
Mean motion
3.75559 °/min
Orbital period
95.86 mins
BSTAR
0.000058985
Loading maneuver chart data...
Computing Atmospheric mass density...

Documentation

Showing up to 5 results
|